Total_Precipitation_Accumulation
1.62 1.56 1.47 1.27 1.14 0.99 0.85 0.85 0.90 0.80 0.74 0.68 0.58 0.52 0.50 0.44 0.39 0.38 0.39 0.41 0.45 0.66 0.86 0.99 1.04 1.09 1.13 1.12 1.09 1.06 0.95 0.88 0.86 0.84 0.78 0.72 0.70 0.69 0.70 0.68 0.65 0.63 0.65
1.77 1.73 1.61 1.41 1.27 1.12 0.96 0.86 0.88 0.91 0.87 0.81 0.73 0.65 0.62 0.55 0.46 0.43 0.40 0.42 0.45 0.53 0.72 0.85 0.96 1.12 1.29 1.34 1.29 1.21 1.09 0.98 0.94 0.91 0.90 0.86 0.78 0.75 0.76 0.75 0.74 0.74 0.74
1.88 1.87 1.76 1.52 1.38 1.34 1.22 1.11 1.08 1.05 0.96 0.82 0.71 0.70 0.69 0.62 0.55 0.51 0.47 0.44 0.44 0.47 0.61 0.79 0.88 1.05 1.26 1.40 1.44 1.41 1.27 1.09 1.02 0.98 0.94 0.92 0.89 0.85 0.90 0.91 0.84 0.80 0.81
2.01 2.03 1.92 1.69 1.67 1.74 1.59 1.39 1.29 1.18 1.03 0.92 0.80 0.76 0.73 0.68 0.59 0.55 0.53 0.48 0.44 0.45 0.56 0.76 0.87 0.98 1.13 1.30 1.44 1.50 1.47 1.34 1.23 1.12 1.03 0.99 0.94 0.92 0.97 1.02 1.00 0.94 0.97
1.99 1.99 1.96 1.88 1.90 1.94 1.86 1.68 1.55 1.44 1.23 1.10 1.00 0.94 0.92 0.88 0.79 0.69 0.62 0.62 0.58 0.56 0.68 0.87 0.95 0.97 1.00 1.11 1.28 1.40 1.46 1.43 1.32 1.21 1.15 1.09 1.02 0.97 0.99 1.03 1.02 1.01 1.02
1.94 1.93 1.88 1.97 2.03 2.00 1.94 1.90 1.76 1.66 1.53 1.42 1.33 1.17 1.11 1.08 0.96 0.79 0.70 0.70 0.70 0.72 0.81 0.87 0.90 0.98 1.00 0.91 0.98 1.19 1.38 1.45 1.37 1.28 1.21 1.15 1.11 1.08 1.08 1.10 1.11 1.10 1.08
2.18 2.10 1.94 1.98 2.09 1.97 1.86 1.94 1.99 1.96 1.87 1.74 1.66 1.47 1.32 1.19 1.07 0.86 0.72 0.70 0.73 0.78 0.81 0.84 0.87 0.80 0.71 0.67 0.73 0.87 1.11 1.32 1.40 1.39 1.26 1.17 1.16 1.19 1.22 1.26 1.29 1.27 1.28
2.20 2.20 2.18 2.11 2.21 2.21 2.10 2.04 2.08 2.13 2.04 2.00 1.95 1.85 1.62 1.44 1.18 0.93 0.78 0.73 0.73 0.79 0.79 0.79 0.78 0.76 0.66 0.61 0.60 0.67 0.87 1.13 1.32 1.42 1.37 1.30 1.25 1.29 1.36 1.45 1.51 1.48 1.49
2.27 2.19 2.22 2.27 2.28 2.32 2.23 2.14 2.11 2.12 2.13 2.05 1.99 2.10 1.82 1.46 1.21 1.06 0.88 0.79 0.76 0.78 0.80 0.82 0.79 0.76 0.70 0.65 0.61 0.63 0.69 0.85 1.13 1.44 1.63 1.64 1.57 1.53 1.56 1.64 1.69 1.71 1.68
2.33 2.30 2.24 2.23 2.30 2.29 2.24 2.26 2.28 2.15 2.14 2.15 2.10 1.94 1.74 1.47 1.36 1.22 1.06 0.96 0.87 0.81 0.80 0.80 0.77 0.73 0.72 0.70 0.68 0.70 0.74 0.78 1.00 1.35 1.70 1.88 1.87 1.84 1.92 2.02 2.08 2.05 1.94
2.33 2.26 2.25 2.22 2.20 2.22 2.23 2.27 2.32 2.33 2.23 2.16 2.09 2.02 1.93 1.69 1.48 1.42 1.27 1.15 1.13 0.99 0.88 0.83 0.81 0.79 0.74 0.72 0.71 0.76 0.83 0.85 1.01 1.27 1.58 1.84 2.01 2.12 2.20 2.28 2.35 2.33 2.20
2.35 2.21 2.19 2.15 2.13 2.12 2.13 2.22 2.30 2.37 2.33 2.19 2.07 1.93 1.88 1.80 1.63 1.55 1.41 1.22 1.20 1.11 1.02 0.95 0.90 0.86 0.87 0.87 0.88 1.01 0.99 1.02 1.11 1.26 1.54 1.81 1.99 2.11 2.30 2.46 2.54 2.52 2.45
2.40 2.20 2.16 2.17 2.14 2.08 2.11 2.25 2.35 2.37 2.37 2.28 2.19 2.07 1.94 1.78 1.70 1.72 1.69 1.47 1.30 1.16 1.12 1.08 1.01 0.97 0.98 1.02 1.07 1.23 1.16 1.17 1.21 1.31 1.57 1.86 1.95 1.99 2.06 2.22 2.44 2.50 2.50
2.42 2.35 2.29 2.26 2.25 2.22 2.16 2.18 2.20 2.23 2.28 2.25 2.16 2.07 1.98 1.86 1.82 1.82 1.82 1.89 1.76 1.45 1.27 1.16 1.06 1.07 1.12 1.18 1.29 1.40 1.22 1.32 1.27 1.27 1.43 1.63 1.69 1.70 1.75 1.93 2.21 2.39 2.42
2.11 2.27 2.31 2.28 2.21 2.19 2.16 2.16 2.12 2.04 2.10 2.12 2.08 2.01 1.91 1.77 1.76 1.77 1.77 1.88 2.05 1.86 1.42 1.11 1.03 1.03 1.10 1.15 1.31 1.26 1.16 1.34 1.34 1.27 1.28 1.31 1.32 1.33 1.34 1.43 1.62 1.85 1.98
1.69 1.86 2.05 2.14 2.13 2.10 2.07 2.09 2.07 1.97 2.00 1.93 1.87 1.89 1.85 1.73 1.65 1.65 1.71 1.78 1.87 1.94 1.66 1.13 0.97 0.97 1.07 1.13 1.27 1.14 1.08 1.30 1.27 1.24 1.20 1.17 1.16 1.15 1.15 1.19 1.26 1.41 1.55
1.49 1.57 1.70 1.83 1.90 1.94 1.95 1.97 1.92 1.88 1.89 1.85 1.79 1.74 1.69 1.67 1.70 1.66 1.65 1.70 1.77 1.85 1.79 1.30 1.05 1.04 1.15 1.19 1.21 1.13 1.06 1.07 1.09 1.24 1.18 1.13 1.09 1.07 1.06 1.09 1.12 1.18 1.26
1.30 1.31 1.39 1.47 1.55 1.61 1.64 1.69 1.71 1.71 1.71 1.71 1.69 1.68 1.63 1.60 1.60 1.60 1.65 1.66 1.68 1.70 1.73 1.52 1.20 1.09 1.09 1.10 1.12 1.11 1.06 1.01 0.97 1.16 1.16 1.12 1.09 1.05 1.01 1.01 1.05 1.08 1.10
1.31 1.23 1.20 1.24 1.29 1.34 1.39 1.41 1.44 1.47 1.48 1.49 1.54 1.57 1.56 1.61 1.65 1.60 1.58 1.55 1.50 1.50 1.54 1.52 1.30 1.09 1.03 1.01 1.08 1.09 1.03 0.99 0.92 1.00 1.07 1.13 1.12 1.09 1.08 1.05 1.07 1.07 1.03
1.22 1.25 1.15 1.08 1.11 1.16 1.22 1.29 1.31 1.34 1.36 1.40 1.43 1.46 1.49 1.52 1.53 1.54 1.58 1.55 1.50 1.48 1.46 1.48 1.39 1.23 1.13 1.09 1.15 1.18 1.16 1.07 1.01 0.93 1.02 1.06 1.14 1.15 1.08 1.00 0.96 0.98 1.00
1.08 1.15 1.15 1.08 1.04 1.06 1.12 1.18 1.22 1.26 1.28 1.32 1.35 1.36 1.41 1.54 1.60 1.57 1.55 1.53 1.57 1.66 1.65 1.64 1.53 1.33 1.17 1.10 1.11 1.07 1.13 1.12 1.11 1.06 1.04 0.99 0.94 0.93 0.95 0.97 0.96 0.96 1.01
0.99 1.08 1.13 1.14 1.12 1.14 1.36 1.35 1.26 1.25 1.28 1.28 1.28 1.25 1.27 1.35 1.37 1.44 1.48 1.47 1.56 1.71 1.82 1.80 1.61 1.32 1.06 0.95 0.93 1.02 1.16 1.25 1.21 0.96 0.93 0.98 0.95 0.97 0.92 0.90 1.03 1.00 0.99
1.04 1.12 1.19 1.23 1.23 1.30 1.44 1.36 1.35 1.22 1.20 1.21 1.20 1.17 1.15 1.14 1.19 1.09 1.19 1.27 1.31 1.45 1.54 1.48 1.38 1.15 0.99 0.94 1.06 1.19 1.18 1.19 1.05 0.89 0.98 1.09 1.04 1.04 0.96 0.97 1.08 1.00 0.98
1.23 1.29 1.37 1.39 1.39 1.40 1.42 1.35 1.36 1.18 1.09 1.05 1.00 0.94 0.93 0.91 0.93 1.01 1.07 1.16 1.08 1.06 1.08 1.06 1.04 0.98 0.96 1.00 1.18 1.36 1.39 1.38 1.17 1.02 1.02 1.15 1.02 1.01 0.99 1.01 1.09 1.03 1.02
1.34 1.31 1.31 1.31 1.29 1.26 1.27 1.22 1.21 1.06 1.00 0.93 0.85 0.79 0.80 0.78 0.93 1.10 1.11 1.15 1.00 0.90 0.97 1.07 1.14 1.16 1.25 1.29 1.32 1.53 1.70 1.78 1.56 1.14 0.96 1.03 0.96 0.93 0.99 1.02 1.03 1.05 1.02
1.11 1.07 1.03 1.01 0.99 0.96 1.00 1.00 1.03 0.98 0.93 0.84 0.77 0.74 0.82 0.81 0.97 1.10 1.04 1.07 1.03 0.87 0.87 0.95 1.01 1.06 1.05 1.13 1.27 1.27 1.46 1.79 1.65 1.31 0.89 0.97 1.03 1.12 1.37 1.08 0.95 0.94 0.95